Hourly Data Report for January 05, 2006

TORONTO CITY
ONTARIO

43°40'00.000" N
79°24'00.000" W
112.50 m
6158355
71508
XTO

Download Data

Hourly Data (January 2006)
Hourly Data Report for January 5, 2006
TIME
LST
Temp Definition
°C
Dew Point Definition
°C
Rel Hum Definition
%
Precip. Amount Definition
mm

Wind Dir Definition
10's deg

Wind Spd Definition
km/h
Visibility Definition
km
Stn Press Definition
kPa
Hmdx Definition


Wind Chill Definition


Weather Definition


00:00 5.5 5.4 99   LegendMM LegendMM   98.62     LegendNANA
01:00 5.4 5.3 99   LegendMM LegendMM   98.58     LegendNANA
02:00 5.3 5.0 98   LegendMM LegendMM   98.59     LegendNANA
03:00 5.0 4.5 97   LegendMM LegendMM   98.61     LegendNANA
04:00 4.4 3.5 94   LegendMM LegendMM   98.61     LegendNANA
05:00 3.3 2.4 94   LegendMM LegendMM   98.61     LegendNANA
06:00 2.8 2.1 95   LegendMM LegendMM   98.65     LegendNANA
07:00 2.6 1.9 95   LegendMM LegendMM   98.71     LegendNANA
08:00 3.0 2.3 95   LegendMM LegendMM   98.77     LegendNANA
09:00 3.1 1.4 89   LegendMM LegendMM   98.88     LegendNANA
10:00 2.7 0.7 87   LegendMM LegendMM   98.96     LegendNANA
11:00 2.3 -0.3 83   LegendMM LegendMM   99.03     LegendNANA
12:00 1.9 -1.4 79   LegendMM LegendMM   99.04     LegendNANA
13:00 2.2 -1.3 78   LegendMM LegendMM   99.07     LegendNANA
14:00 2.3 -1.1 78   LegendMM LegendMM   99.12     LegendNANA
15:00 2.2 -1.9 74   LegendMM LegendMM   99.18     LegendNANA
16:00 1.9 -1.7 77   LegendMM LegendMM   99.26     LegendNANA
17:00 1.6 -2.0 77   LegendMM LegendMM   99.33     LegendNANA
18:00 1.2 -2.1 79   LegendMM LegendMM   99.43     LegendNANA
19:00 0.8 -2.5 79   LegendMM LegendMM   99.48     LegendNANA
20:00 0.5 -2.6 80   LegendMM LegendMM   99.52     LegendNANA
21:00 -0.5 -3.8 78   LegendMM LegendMM   99.54     LegendNANA
22:00 -0.8 -4.3 77   LegendMM LegendMM   99.56     LegendNANA
23:00 -1.1 -4.8 76   LegendMM LegendMM   99.55     LegendNANA

Notes on Data Quality.

Legend

  • E = Estimated
  • M = Missing
  • NA = Not Available*
  • [empty] = Indicates an unobserved value
Date modified: